COSMOS 407

Satellite information

Favourite Embed

Satellite Type and Status

PAYLOADIN ORBIT

Key statistics

Satellite COSMOS 407 at a glance.

Uptime

19959

Days in orbit

Revolutions

≈ 14.3

Per day

Orbit

LEO

Low Earth Orbit

Inclination

74.0

Latest

Satellite identification and parameters

Extended collection of information and parameters for COSMOS 407.

Object identification

Identified? True

Debris? False

Object name: COSMOS 407

International designator: 1971-035A

Object number (NORAD): 5174

Object ID (CCSDS): 5174

Country: COMMONWEALTH OF INDEPENDENT STATES (CIS)

Current information (Y/N): Y

RCS size: LARGE

Orbital parameters

Period: 100.406 minutes

Inclination: 74.0446 deg

SMA: 7155.938 km

Apoapsis: 791.564 km

Periapsis: 764.041 km

RAAN: 92.449 deg

Eccentricy: 0.0019231

Argument of periapsis: 317.1637 deg

Mean anomaly: 42.8016 deg

Mean motion: 14.34177587 rev/day

Mean motion (dot): 0.00000294 rev/day2

B* drag term: 0.00011417812 1/REarth

Two-line elements (TLE)

Creation date: Dec. 12, 2025, 10:14 a.m.

Reference frame: TEME

Reference center: EARTH

Epoch: Dec. 12, 2025, 7:03 a.m. UTC

TLE line 0: 0 COSMOS 407

TLE line 1: 1 05174U 71035A 25346.29399804 .00000294 00000-0 11418-3 0 9990

TLE line 2: 2 05174 74.0446 92.4490 0019231 317.1637 42.8016 14.34177587853796

Live tracking on map

Real-time ground track for satellite COSMOS 407.

In-orbit conjunctions

A list of the most updated potential collisions computed for object COSMOS 407.

Target Orbit TCA Probability of collision Miss distance Type
IRIDIUM 33 DEB LEO 2025-10-29 00:19:04 0.0003493835 628.0 (m) DEBRIS
FENGYUN 1C DEB SSO 2025-08-27 00:40:03 0.0002672744 885.0 (m) DEBRIS
PEGASUS DEB LEO 2025-07-01 03:34:02 0.0001071043 90.0 (m) DEBRIS
CZ-6A DEB LEO 2025-05-22 20:34:15 0.0005328318 838.0 (m) DEBRIS
CZ-6A DEB LEO 2025-04-21 22:25:24 0.000553139 321.0 (m) DEBRIS

Associated space launch

Military communications satellite

COSMOS 407 was lifted into orbit during the mission ‘Kosmos-3M | Strela-2M 3’, on board a Kosmos-3M space rocket.

The launch took place on April 23, 1971, 11:30 a.m. from 132/1 (132L).

For more information about the launch, click the button.

Launch to space Kosmos-3M | Strela-2M 3
Kosmos-3M | Strela-2M 3

Agency: N/A

Status: Launch Successful

Launch date: April 23, 1971, 11:30 a.m. UTC

Rocket: Kosmos-3M

Launch pad: 132/1 (132L)

Location: Plesetsk Cosmodrome, Russian Federation

...

Latest news about this satellite

There are no fresh news available about this satellite. Check back as we update our databases every day.


Newsletter sign-up

Weekly statistics, charts and insights to help you stay on top of the space industry.